This is the latest recevied weather packets stored in our database for station/object HS2LXA-13. If no packets are shown the sender has not sent any weather packets the latest 10 day(s).
| Time | Temp. | Humidity | Pressure | Rain* | Wind** | Luminosity | Snow |
|---|---|---|---|---|---|---|---|
| 1777696322 | 35.56° C | 77% | 1011 hPa | 0 mm | - | 0 W/m² | - |
| 1777695714 | 35° C | 76% | 1011.1 hPa | 0 mm | - | 0 W/m² | - |
| 1777695114 | 35° C | 73% | 1011.2 hPa | 0 mm | - | 0 W/m² | - |
| 1777694512 | 35° C | 74% | 1011.1 hPa | 0 mm | - | 0 W/m² | - |
| 1777693911 | 34.44° C | 73% | 1011.1 hPa | 0 mm | - | 0 W/m² | - |
| 1777693309 | 35° C | 74% | 1011.2 hPa | 0 mm | - | 0 W/m² | - |
| 1777692707 | 34.44° C | 74% | 1011.2 hPa | 0 mm | - | 0 W/m² | - |
| 1777692100 | 35° C | 75% | 1011.1 hPa | 0 mm | - | 0 W/m² | - |
| 1777691498 | 35° C | 75% | 1011.2 hPa | 0 mm | - | 0 W/m² | - |
| 1777690897 | 34.44° C | 76% | 1011.2 hPa | 0 mm | - | 0 W/m² | - |
| 1777690296 | 34.44° C | 80% | 1011.1 hPa | 0 mm | - | 0 W/m² | - |
| 1777689691 | 33.89° C | 80% | 1011.2 hPa | 0 mm | - | 0 W/m² | - |
| 1777689089 | 33.33° C | 81% | 1011.2 hPa | 0 mm | - | 0 W/m² | - |
| 1777688487 | 32.78° C | 81% | 1011.2 hPa | 0 mm | - | 0 W/m² | - |
| 1777687886 | 32.22° C | 80% | 1011.3 hPa | 0 mm | - | 0 W/m² | - |
| 1777687283 | 31.67° C | 80% | 1011.3 hPa | 0 mm | - | 0 W/m² | - |
| 1777686682 | 31.11° C | 80% | 1011.2 hPa | 0 mm | - | 0 W/m² | - |
| 1777686080 | 30.56° C | 78% | 1011.2 hPa | 0 mm | - | 0 W/m² | - |
| 1777685478 | 30.56° C | 76% | 1011 hPa | 0 mm | - | 0 W/m² | - |
| 1777684877 | 30° C | 78% | 1011.1 hPa | 0 mm | - | 0 W/m² | - |
| 1777684277 | 28.89° C | 78% | 1011 hPa | 0 mm | - | 0 W/m² | - |
| 1777683676 | 28.89° C | 78% | 1010.9 hPa | 0 mm | - | 0 W/m² | - |
| 1777683082 | 28.89° C | 78% | 1011 hPa | 0 mm | - | 0 W/m² | - |
| 1777682475 | 28.33° C | 80% | 1011 hPa | 0 mm | - | 0 W/m² | - |
| 1777681873 | 27.78° C | 80% | 1010.8 hPa | 0 mm | - | 0 W/m² | - |
* Rain latest hour (hover to see other rain measurements)
** Current wind speed in m/s (hover to see current wind gust speed)